Regional Weather Roundup
Issued by NWS

Home | Current Version | Previous Version | Text Only | Print | Product List | Glossary On
Versions: 1 2 3 4 5 6 7 8 9 10 11 12 13 14 15 16 17 18 19 20 21 22 23 24 25 26 27 28 29 30 31 32 33 34 35 36 37 38 39 40 41 42 43 44 45 46 47 48 49 50
000
ASUS43 KDTX 230310
RWRMI
MICHIGAN HOURLY REGIONAL WEATHER ROUNDUP
NATIONAL WEATHER SERVICE DETROIT/PONTIAC MI
1000 PM EST SUN JAN 22 2017

NOTE: "FAIR" INDICATES FEW OR NO CLOUDS BELOW 12,000 FEET WITH NO
SIGNIFICANT WEATHER AND/OR OBSTRUCTION TO VISIBILITY.

MIZ047>049-052>055-059>063-066>070-074>076-081>083-230400-
SOUTHEAST LOWER MICHIGAN

CITY           SKY/WX    TMP DP  RH WIND       PRES   REMARKS
ADRIAN         FOG       45  45 100 E5        29.64R VSB 1/2
ALMA           FOG       38  38  99 CALM      29.66R VSB 1/4
ANN ARBOR      FOG       47  47 100 NE3       29.63R VSB 1/4
BAD AXE        FOG       41  41 100 CALM      29.67R VSB 1/2
CARO           CLOUDY    38  38 100 CALM      29.65S FOG
DETROIT CITY   FOG       45  45 100 E7        29.65R VSB 1/4
DETROIT        FOG       47  47 100 NE3       29.65R VSB 1/2
FLINT          FOG       40  40 100 CALM      29.66R VSB 1
GROSSE ILE     FOG       44  44  99 E7        29.63S VSB 3/4
HILLSDALE      CLOUDY    45  45 100 NE5       29.62S FOG
HOWELL         FOG       41  40  97 N3        29.64S VSB 3/4

CITY           SKY/WX    TMP DP  RH WIND       PRES   REMARKS
JACKSON        FOG       44  43  96 N5        29.64R VSB 1/2
LAMBERTVILLE   FOG       43  42  96 E8        29.63S VSB 1/2
LANSING        FOG       40  38  93 E3        29.66R VSB 3/4
LAPEER         FOG       42  42  99 CALM      29.66R VSB 1/2
MASON          FOG       41  41 100 CALM      29.66R VSB 3/4
MONROE         CLOUDY    45  45 100 E7        29.63R FOG
MT. CLEMENS    FOG       42  42 100 CALM      29.63R VSB 1/8
PONTIAC        FOG       45  43  93 CALM      29.63R VSB 1/4
PORT HOPE        N/A     37  37 100 SE6       29.65F WCI  32
PORT HURON     FOG       41  41 100 E5        29.66R VSB 3/4
TRI CITIES     FOG       37  37 100 NE5       29.66F VSB 1/4 WCI  33
MIDLAND        FOG       39  38  97 CALM      29.66S VSB 3/4
TROY           FOG       46  45  95 E3        29.66R VSB 3/4
SAGINAW HB     SNOW      36  34  93 N5        29.66S VSB 1/2 WCI  32
$$
MIZ043>046-050>051-056>058-064>065-071>073-077>080-230400-
SOUTHWEST LOWER MICHIGAN

CITY           SKY/WX    TMP DP  RH WIND       PRES   REMARKS
BATTLE CREEK   CLOUDY    42  42 100 N5        29.65R FOG
BENTON HARBOR  CLOUDY    42  40  92 NE6       29.66R FOG
BIG RAPIDS     FOG       34  34  99 CALM      29.66R VSB 1
COLDWATER      FOG       43  43 100 NE3       29.63S VSB 3/4
FREMONT        CLOUDY    40  40 100 CALM      29.66R FOG
HOLLAND        PTCLDY    39  37  92 CALM      29.67R
GRAND RAPIDS   CLOUDY    42  40  92 NE3       29.66R FOG
IONIA          FOG       40  40  99 NE5       29.65R VSB 1/2
KALAMAZOO      CLOUDY    42  40  92 CALM      29.65R FOG
LUDINGTON      FOG       33  33 100 CALM      29.67R VSB<1/4
MARSHALL       CLOUDY    41  41  99 CALM      29.64R FOG
MOUNT PLEASANT FOG       37  37  99 CALM      29.65S VSB 1/2
MUSKEGON       CLOUDY    42  40  92 N7        29.67R
SOUTH HAVEN    CLOUDY    42  42  99 E3        29.67R FOG
$$
MIZ016>042-230400-
NORTHERN LOWER MICHIGAN

CITY           SKY/WX    TMP DP  RH WIND       PRES   REMARKS
ALPENA         FOG       38  37  97 NE5       29.69S VSB 1/2 WCI  34
BEAVER ISLAND  CLOUDY    35  35 100 E6        29.68F WCI  30
BELLAIRE       CLOUDY    34  34  99 CALM      29.68S FOG
CADILLAC       CLOUDY    38  37  97 CALM      29.64S
CHARLEVOIX     FOG       37  37 100 CALM      29.70F VSB 3/4
FRANKFORT      FOG      N/A N/A N/A CALM      29.66F VSB 1/4
GAYLORD        FOG       39  36  89 CALM      29.66R VSB 1/4
GRAYLING       FOG       36  36  99 CALM      29.67S VSB 3/4
HARBOR SPRINGS FOG       36  36 100 CALM      29.68S VSB 1
HOUGHTON LAKE  FOG       37  36  96 E3        29.66R VSB 1/4
MANISTEE       CLOUDY    38  37  97 CALM      29.66S FOG
OSCODA         FOG       38  38  97 CALM      29.68R VSB 3/4
PELLSTON       FOG       35  33  92 NE3       29.68F VSB 1/2
ROGERS CITY    FOG       37  36  96 E3        29.70S VSB 1/2
TRAVERSE CITY  CLOUDY    38  37  97 CALM      29.66F FOG
$$
MIZ007>008-015-230400-
EASTERN UPPER MICHIGAN

CITY           SKY/WX    TMP DP  RH WIND       PRES   REMARKS
KINROSS        CLOUDY    36  36 100 E7        29.70S FOG     WCI  30
MACKINAC ISLAN FOG       35  35 100 E5        29.69F VSB 1/4 WCI  30
NEWBERRY       CLOUDY    34  33  96 E3        29.68S
S. S. MARIE    FOG       37  36  96 CALM      29.70S VSB 1/2
MUNISING         N/A     34  34 100 CALM      29.68S
$$
MIZ004>006-011>014-085-230400-
CENTRAL UPPER MICHIGAN

CITY           SKY/WX    TMP DP  RH WIND       PRES   REMARKS
MANISTIQUE     CLOUDY    35  34  97 E7        29.68S FOG     WCI  29
ESCANABA       CLOUDY    34  34 100 CALM      29.68F FOG
SAWYER-GWINN   FOG       34  34 100 CALM      29.67S VSB 1/4
$$
MIZ001>003-009>011-084-230400-
WESTERN UPPER MICHIGAN

CITY           SKY/WX    TMP DP  RH WIND       PRES   REMARKS
IRON MOUNTAIN  CLOUDY    36  34  92 CALM      29.66S FOG
HOUGHTON       FOG       35  33  92 NW12      29.66S VSB 3/4 WCI  27
COPPER HARBOR    N/A     35  35 100 CALM      29.66S
IRONWOOD       CLOUDY    33  32  96 SW3       29.71S
$$

ABBREVIATIONS USED IN REMARKS
   TC - TEMPERATURE IN CELSIUS
  WCI - WIND CHILL INDEX
   HX - HEAT INDEX
  VSB - VISIBILITY





USA.gov is the U.S. government's official web portal to all federal, state and local government web resources and services.